Погода в Выгоничах

Россия / Брянская область     53°06′15″N   34°03′46″E
темп.,
°C
ветер,
м/с
пор.,
м/с
влажн.,
%
обл.,
%
осадки,
мм/ч
давл.,
гПа
погр.,
м
20 апреля, вт
вт2000:00+5св498998 0.0 1017488
03:00+5св4893100 0.2 1016653
06:00+5св4896100 2.1 1015415
09:00+6св5894100 2.3 1014416
12:00+7св4897100 1.4 1013513
15:00+7всв3794100 4.1 1011484
18:00+8св41088100 0.8 1010612
21:00+5св5893100 0.8 1009532
21 апреля, ср
ср2100:00+4с4697100 0.0 1007446
03:00+3ссз3697100 0.3 1006463
06:00+3сз4897100 0.1 1006534
09:00+4з5890100 0.1 1007656
12:00+6з5777100 0.1 10081079
15:00+6зюз468478 0.2 1010680
18:00+8юз367699 0.3 1011753
21:00+5ююз349060 0.5 101282
22 апреля, чт
чт2200:00+3ююз359087 0.0 101366
03:00+3ююз359324 0.0 101489
06:00+3ю379685 0.0 1014138
09:00+8ю588072 0.0 1015407
12:00+14ююз686231 0.4 10141243
15:00+15юз685849 2.3 10141521
18:00+14юз58665 1.0 1015773
21:00+9ююз3691100 1.7 1016114
23 апреля, пт
пт2300:00+8ю49905 0.4 1016150
03:00+7ю4109315 0.4 1016199
06:00+7ю411945 0.2 1016235
09:00+11ю5118099 0.3 1016458
12:00+16ю812575 0.2 10151781
15:00+17ю812526 1.2 10132400
18:00+14ю7126899 1.8 1012970
21:00+8зюз4996100 8.8 1015508
24 апреля, сб
сб2400:00+6з3589100 3.2 1015476
03:00+5юз3691100 4.1 1015547
06:00+5юз4890100 0.2 1014462
09:00+6зюз577654 0.3 10141050
12:00+6зюз796975 0.5 10151359
15:00+6з8105660 0.8 10151685
18:00+6зсз595929 0.4 10161566
21:00+3зюз34715 0.4 101761